Time,TemperatureF,DewpointF,PressureIn,WindDirection,WindDirectionDegrees,WindSpeedMPH,WindSpeedGustMPH,Humidity,HourlyPrecipIn,Conditions,Clouds,dailyrainin,SoftwareType,DateUTC
2013-03-29 00:10:00,33.1,24.7,30.13,West,270,0.0,-999.0,71,-99.99,,,0.00,Acu-Link.com,2013-03-29 04:10:00,
2013-03-29 00:25:00,33.4,24.7,30.13,West,270,1.1,-999.0,70,-99.99,,,0.00,Acu-Link.com,2013-03-29 04:25:00,
2013-03-29 00:41:00,33.4,24.3,30.14,West,270,1.7,-999.0,69,-99.99,,,0.00,Acu-Link.com,2013-03-29 04:41:00,
2013-03-29 01:11:00,32.5,24.2,30.14,West,270,0.0,-999.0,71,-99.99,,,0.00,Acu-Link.com,2013-03-29 05:11:00,
2013-03-29 01:26:00,31.3,23.7,30.14,SW,225,0.0,-999.0,73,-99.99,,,0.00,Acu-Link.com,2013-03-29 05:26:00,
2013-03-29 01:42:00,30.2,23.2,30.14,SSW,202,0.0,-999.0,75,-99.99,,,0.00,Acu-Link.com,2013-03-29 05:42:00,
2013-03-29 02:12:00,28.0,23.2,30.14,South,180,0.0,-999.0,82,-99.99,,,0.00,Acu-Link.com,2013-03-29 06:12:00,
2013-03-29 02:27:00,27.1,22.9,30.15,NE,45,0.0,-999.0,84,-99.99,,,0.00,Acu-Link.com,2013-03-29 06:27:00,
2013-03-29 02:43:00,26.6,22.4,30.15,West,270,0.0,-999.0,84,-99.99,,,0.00,Acu-Link.com,2013-03-29 06:43:00,
2013-03-29 02:58:00,25.9,22.6,30.15,SW,225,0.0,-999.0,87,-99.99,,,0.00,Acu-Link.com,2013-03-29 06:58:00,
2013-03-29 03:13:00,25.5,22.2,30.15,SW,225,0.0,-999.0,87,-99.99,,,0.00,Acu-Link.com,2013-03-29 07:13:00,
2013-03-29 03:29:00,25.0,22.0,30.14,SW,225,0.0,-999.0,88,-99.99,,,0.00,Acu-Link.com,2013-03-29 07:29:00,
2013-03-29 03:44:00,24.6,22.1,30.14,SW,225,0.0,-999.0,90,-99.99,,,0.00,Acu-Link.com,2013-03-29 07:44:00,
2013-03-29 03:59:00,24.3,22.1,30.14,West,270,0.0,-999.0,91,-99.99,,,0.00,Acu-Link.com,2013-03-29 07:59:00,
2013-03-29 04:15:00,24.1,21.9,30.14,West,270,0.0,-999.0,91,-99.99,,,0.00,Acu-Link.com,2013-03-29 08:15:00,
2013-03-29 04:30:00,24.1,22.4,30.14,West,270,0.0,-999.0,93,-99.99,,,0.00,Acu-Link.com,2013-03-29 08:30:00,
2013-03-29 04:45:00,24.3,22.6,30.14,SW,225,0.0,-999.0,93,-99.99,,,0.00,Acu-Link.com,2013-03-29 08:45:00,
2013-03-29 05:00:00,23.9,22.2,30.14,WSW,247,0.0,-999.0,93,-99.99,,,0.00,Acu-Link.com,2013-03-29 09:00:00,
2013-03-29 05:15:00,23.7,22.2,30.14,WSW,247,0.0,-999.0,94,-99.99,,,0.00,Acu-Link.com,2013-03-29 09:15:00,
2013-03-29 05:30:00,23.7,22.2,30.14,SW,225,0.0,-999.0,94,-99.99,,,0.00,Acu-Link.com,2013-03-29 09:30:00,
2013-03-29 05:45:00,23.5,21.8,30.14,SW,225,0.0,-999.0,93,-99.99,,,0.00,Acu-Link.com,2013-03-29 09:45:00,
2013-03-29 06:00:00,23.4,21.4,30.14,SSW,202,0.0,-999.0,92,-99.99,,,0.00,Acu-Link.com,2013-03-29 10:00:00,
2013-03-29 06:16:00,22.6,20.9,30.14,SW,225,0.0,-999.0,93,-99.99,,,0.00,Acu-Link.com,2013-03-29 10:16:00,
2013-03-29 06:46:00,22.1,19.9,30.14,SSW,202,0.0,-999.0,91,-99.99,,,0.00,Acu-Link.com,2013-03-29 10:46:00,
2013-03-29 07:17:00,21.7,20.0,30.15,SSW,202,0.0,-999.0,93,-99.99,,,0.00,Acu-Link.com,2013-03-29 11:17:00,
2013-03-29 07:32:00,21.2,20.0,30.15,SW,225,0.0,-999.0,95,-99.99,,,0.00,Acu-Link.com,2013-03-29 11:32:00,
2013-03-29 08:02:00,22.8,21.8,30.15,SW,225,0.0,-999.0,96,-99.99,,,0.00,Acu-Link.com,2013-03-29 12:02:00,
2013-03-29 08:17:00,25.3,23.0,30.15,SSW,202,0.0,-999.0,91,-99.99,,,0.00,Acu-Link.com,2013-03-29 12:17:00,
2013-03-29 08:33:00,27.9,24.3,30.14,SW,225,0.0,-999.0,86,-99.99,,,0.00,Acu-Link.com,2013-03-29 12:33:00,
2013-03-29 08:48:00,31.6,23.6,30.15,West,270,3.7,-999.0,72,-99.99,,,0.00,Acu-Link.com,2013-03-29 12:48:00,
2013-03-29 09:03:00,32.4,24.4,30.15,West,270,2.7,-999.0,72,-99.99,,,0.00,Acu-Link.com,2013-03-29 13:03:00,
2013-03-29 09:18:00,34.2,24.4,30.15,West,270,1.1,-999.0,67,-99.99,,,0.00,Acu-Link.com,2013-03-29 13:18:00,
2013-03-29 09:34:00,36.1,24.0,30.15,NNE,22,2.2,-999.0,61,-99.99,,,0.00,Acu-Link.com,2013-03-29 13:34:00,
2013-03-29 09:49:00,37.2,24.6,30.15,West,270,4.7,-999.0,60,-99.99,,,0.00,Acu-Link.com,2013-03-29 13:49:00,
2013-03-29 10:04:00,38.3,24.4,30.15,NNE,22,3.2,-999.0,57,-99.99,,,0.00,Acu-Link.com,2013-03-29 14:04:00,
2013-03-29 10:19:00,39.4,24.6,30.15,North,0,2.7,-999.0,55,-99.99,,,0.00,Acu-Link.com,2013-03-29 14:19:00,
2013-03-29 10:34:00,40.8,25.9,30.15,West,270,2.7,-999.0,55,-99.99,,,0.00,Acu-Link.com,2013-03-29 14:34:00,
2013-03-29 10:49:00,42.1,24.8,30.15,NE,45,2.2,-999.0,50,-99.99,,,0.00,Acu-Link.com,2013-03-29 14:49:00,
2013-03-29 11:05:00,42.8,24.0,30.15,WSW,247,2.7,-999.0,47,-99.99,,,0.00,Acu-Link.com,2013-03-29 15:05:00,
2013-03-29 11:20:00,44.1,24.1,30.15,NE,45,3.7,-999.0,45,-99.99,,,0.00,Acu-Link.com,2013-03-29 15:20:00,
2013-03-29 11:35:00,44.4,23.9,30.15,West,270,0.0,-999.0,44,-99.99,,,0.00,Acu-Link.com,2013-03-29 15:35:00,
2013-03-29 11:51:00,45.7,25.6,30.15,ESE,112,1.1,-999.0,45,-99.99,,,0.00,Acu-Link.com,2013-03-29 15:51:00,
2013-03-29 12:06:00,45.9,24.7,30.15,West,270,3.2,-999.0,43,-99.99,,,0.00,Acu-Link.com,2013-03-29 16:06:00,
2013-03-29 12:36:00,46.6,23.6,30.14,ESE,112,2.7,-999.0,40,-99.99,,,0.00,Acu-Link.com,2013-03-29 16:36:00,
2013-03-29 12:51:00,48.6,25.4,30.14,WNW,292,4.2,-999.0,40,-99.99,,,0.00,Acu-Link.com,2013-03-29 16:51:00,
2013-03-29 13:06:00,48.0,24.2,30.13,NE,45,3.2,-999.0,39,-99.99,,,0.00,Acu-Link.com,2013-03-29 17:06:00,
2013-03-29 13:22:00,48.6,24.2,30.12,WNW,292,3.2,-999.0,38,-99.99,,,0.00,Acu-Link.com,2013-03-29 17:22:00,
2013-03-29 13:37:00,48.4,25.2,30.12,WSW,247,2.2,-999.0,40,-99.99,,,0.00,Acu-Link.com,2013-03-29 17:37:00,
2013-03-29 13:52:00,50.0,25.4,30.12,NNW,337,4.7,-999.0,38,-99.99,,,0.00,Acu-Link.com,2013-03-29 17:52:00,
2013-03-29 14:08:00,50.9,26.2,30.11,WNW,292,3.2,-999.0,38,-99.99,,,0.00,Acu-Link.com,2013-03-29 18:08:00,
2013-03-29 14:23:00,50.4,25.8,30.11,West,270,1.7,-999.0,38,-99.99,,,0.00,Acu-Link.com,2013-03-29 18:23:00,
2013-03-29 14:38:00,50.9,25.6,30.10,WSW,247,5.8,-999.0,37,-99.99,,,0.00,Acu-Link.com,2013-03-29 18:38:00,
2013-03-29 14:53:00,51.8,25.0,30.09,West,270,3.2,-999.0,35,-99.99,,,0.00,Acu-Link.com,2013-03-29 18:53:00,
2013-03-29 15:09:00,52.2,24.7,30.09,South,180,1.7,-999.0,34,-99.99,,,0.00,Acu-Link.com,2013-03-29 19:09:00,
2013-03-29 15:24:00,52.2,24.7,30.09,NNW,337,6.3,-999.0,34,-99.99,,,0.00,Acu-Link.com,2013-03-29 19:24:00,
2013-03-29 15:39:00,51.6,23.5,30.08,East,90,4.7,-999.0,33,-99.99,,,0.00,Acu-Link.com,2013-03-29 19:39:00,
2013-03-29 15:54:00,52.3,25.5,30.08,WSW,247,6.3,-999.0,35,-99.99,,,0.00,Acu-Link.com,2013-03-29 19:54:00,
2013-03-29 16:09:00,51.8,25.0,30.07,SSE,157,1.1,-999.0,35,-99.99,,,0.00,Acu-Link.com,2013-03-29 20:09:00,
2013-03-29 16:25:00,52.2,24.7,30.07,NW,315,2.2,-999.0,34,-99.99,,,0.01,Acu-Link.com,2013-03-29 20:25:00,
2013-03-29 16:40:00,52.7,24.4,30.07,NNE,22,5.3,-999.0,33,-99.99,,,0.02,Acu-Link.com,2013-03-29 20:40:00,
2013-03-29 16:55:00,51.8,22.9,30.07,NNW,337,2.2,-999.0,32,-99.99,,,0.02,Acu-Link.com,2013-03-29 20:55:00,
2013-03-29 17:11:00,51.8,23.6,30.06,WNW,292,5.3,-999.0,33,-99.99,,,0.02,Acu-Link.com,2013-03-29 21:11:00,
2013-03-29 17:41:00,55.8,25.6,30.07,NE,45,3.2,-999.0,31,-99.99,,,0.02,Acu-Link.com,2013-03-29 21:41:00,
2013-03-29 18:27:00,49.5,23.7,30.07,North,0,2.2,-999.0,36,-99.99,,,0.02,Acu-Link.com,2013-03-29 22:27:00,
2013-03-29 18:42:00,50.7,24.1,30.07,NNE,22,1.7,-999.0,35,-99.99,,,0.02,Acu-Link.com,2013-03-29 22:42:00,
2013-03-29 18:57:00,49.3,24.1,30.07,WNW,292,1.1,-999.0,37,-99.99,,,0.02,Acu-Link.com,2013-03-29 22:57:00,
2013-03-29 19:13:00,48.9,23.8,30.07,NNE,22,1.7,-999.0,37,-99.99,,,0.02,Acu-Link.com,2013-03-29 23:13:00,
2013-03-29 19:28:00,47.8,24.1,30.07,NE,45,0.0,-999.0,39,-99.99,,,0.02,Acu-Link.com,2013-03-29 23:28:00,
2013-03-29 19:43:00,46.2,23.2,30.07,NW,315,0.0,-999.0,40,-99.99,,,0.02,Acu-Link.com,2013-03-29 23:43:00,
2013-03-29 19:59:00,44.1,23.6,30.07,NNW,337,0.0,-999.0,44,-99.99,,,0.02,Acu-Link.com,2013-03-29 23:59:00,
2013-03-29 20:14:00,42.3,23.5,30.07,NNE,22,0.0,-999.0,47,-99.99,,,0.02,Acu-Link.com,2013-03-30 00:14:00,
2013-03-29 20:29:00,39.9,22.8,30.07,NNE,22,0.0,-999.0,50,-99.99,,,0.02,Acu-Link.com,2013-03-30 00:29:00,
2013-03-29 20:45:00,37.8,22.7,30.08,NNE,22,0.0,-999.0,54,-99.99,,,0.02,Acu-Link.com,2013-03-30 00:45:00,
2013-03-29 21:00:00,35.8,21.7,30.07,NNE,22,0.0,-999.0,56,-99.99,,,0.02,Acu-Link.com,2013-03-30 01:00:00,
2013-03-29 21:15:00,34.5,22.1,30.08,NNE,22,0.0,-999.0,60,-99.99,,,0.02,Acu-Link.com,2013-03-30 01:15:00,
2013-03-29 21:30:00,33.6,22.0,30.08,NNE,22,0.0,-999.0,62,-99.99,,,0.02,Acu-Link.com,2013-03-30 01:30:00,
2013-03-29 21:45:00,32.4,21.2,30.09,West,270,0.0,-999.0,63,-99.99,,,0.02,Acu-Link.com,2013-03-30 01:45:00,
2013-03-29 22:16:00,30.6,22.3,30.08,South,180,0.0,-999.0,71,-99.99,,,0.02,Acu-Link.com,2013-03-30 02:16:00,
2013-03-29 22:31:00,30.0,22.1,30.08,South,180,0.0,-999.0,72,-99.99,,,0.02,Acu-Link.com,2013-03-30 02:31:00,
2013-03-29 22:47:00,29.3,22.4,30.08,South,180,0.0,-999.0,75,-99.99,,,0.02,Acu-Link.com,2013-03-30 02:47:00,
2013-03-29 23:02:00,28.9,22.3,30.08,South,180,0.0,-999.0,76,-99.99,,,0.02,Acu-Link.com,2013-03-30 03:02:00,
2013-03-29 23:17:00,28.4,22.4,30.08,West,270,2.7,-999.0,78,-99.99,,,0.02,Acu-Link.com,2013-03-30 03:17:00,
2013-03-29 23:33:00,28.2,23.4,30.08,West,270,0.0,-999.0,82,-99.99,,,0.02,Acu-Link.com,2013-03-30 03:33:00,
2013-03-29 23:48:00,28.0,22.9,30.08,West,270,0.0,-999.0,81,-99.99,,,0.02,Acu-Link.com,2013-03-30 03:48:00,